Wind_Speed
30 31 31 32 33 33 34 36 37 38 39 40 41 41 41 41 41 41 41 41 41 41 42 42 41 41 42 42 43 43 43 43 42 42 41 41 41 40 40 40 40 39 39
31 32 33 34 35 35 36 37 39 40 41 42 42 42 42 42 43 43 43 43 43 44 43 44 44 43 44 45 45 44 44 44 45 44 44 44 44 43 42 41 40 40 40
33 34 35 36 37 37 38 39 40 42 42 43 43 43 43 43 44 44 44 44 45 45 46 46 47 47 47 48 48 46 46 46 47 47 47 47 46 46 45 44 43 42 42
36 36 37 37 38 39 40 41 42 43 43 43 43 43 44 44 45 45 46 46 47 48 48 49 49 49 50 49 49 48 48 48 48 49 49 49 48 48 47 46 45 44 44
37 37 38 38 39 40 40 41 42 43 43 44 45 46 46 46 46 47 47 48 49 50 50 50 51 51 51 51 50 50 50 50 49 50 51 51 51 50 49 48 47 46 46
38 38 39 39 40 40 41 41 42 43 44 45 46 47 47 48 48 48 48 49 50 50 51 52 52 52 52 51 51 51 52 52 52 52 53 53 53 52 51 50 49 49 48
38 39 40 40 41 41 42 43 44 44 45 46 47 47 47 48 48 48 49 50 50 51 52 52 53 53 54 54 54 54 54 54 54 54 55 55 55 54 53 52 51 51 50
38 39 40 41 42 43 43 44 45 45 46 46 47 47 47 47 48 48 49 50 51 52 52 53 54 54 56 56 55 55 55 56 56 55 56 57 56 56 56 54 53 53 52
39 40 41 42 42 43 44 45 45 46 46 46 47 48 49 49 49 49 50 51 52 53 53 54 54 55 56 57 57 57 57 56 56 56 57 57 57 57 57 57 55 54 54
40 40 41 42 43 44 45 45 46 46 47 47 48 49 50 51 52 51 51 52 52 53 54 55 56 56 56 56 56 57 57 56 56 56 57 57 57 57 57 57 57 56 56
40 40 41 42 43 44 45 46 46 47 48 48 49 49 50 51 53 54 53 53 53 53 54 55 56 56 55 55 56 57 58 57 57 56 56 56 56 56 57 57 58 58 57
40 41 41 42 43 44 45 46 47 48 48 49 48 48 49 50 52 53 55 54 54 54 55 55 55 55 56 56 56 57 57 57 57 56 56 55 54 55 56 56 57 57 57
40 41 42 43 43 44 45 45 46 46 47 47 47 47 49 51 52 53 54 54 54 54 54 54 54 54 55 56 56 56 56 56 55 55 55 54 53 53 54 54 56 57 56
41 42 43 43 43 43 43 44 44 45 46 47 47 48 50 51 52 53 54 55 55 53 53 53 53 54 54 55 54 54 53 53 53 54 54 53 52 53 53 53 53 55 55
42 43 42 42 42 43 44 45 46 46 47 47 48 49 50 51 51 52 54 56 56 55 53 52 53 53 53 53 52 51 51 51 50 50 51 50 50 50 50 50 50 52 53
41 41 41 42 43 43 44 45 46 47 47 48 48 48 49 50 51 53 54 55 56 56 54 51 52 52 52 51 50 49 48 47 46 46 47 46 46 46 46 46 47 49 49
41 41 41 42 42 43 44 46 46 47 47 48 48 48 49 50 51 53 53 53 54 55 54 51 51 50 50 48 47 46 45 44 43 42 42 41 41 41 42 42 44 46 47
41 42 42 42 43 44 45 45 46 47 48 48 48 49 50 51 51 52 52 52 52 53 53 51 49 48 47 45 44 43 42 41 40 39 39 38 38 38 38 39 40 42 44
42 43 43 43 44 45 46 46 46 47 47 48 48 49 50 51 51 51 51 50 50 49 49 48 46 44 42 42 41 39 38 38 38 39 38 36 36 35 36 37 38 39 40
43 43 43 44 44 45 45 46 46 47 47 47 48 48 49 50 49 49 48 47 47 46 45 44 43 40 38 38 38 37 36 36 36 37 37 36 35 34 34 35 35 36 37
43 44 44 44 44 45 45 45 46 46 46 46 47 47 47 46 46 45 44 44 43 42 41 40 39 38 36 34 35 34 34 33 33 34 34 34 33 32 32 32 33 34 35
44 44 44 43 43 44 45 45 46 46 46 46 45 45 44 43 43 42 41 41 41 40 39 37 36 35 34 31 31 32 32 30 30 31 32 31 31 31 30 31 31 31 33
43 43 42 42 42 43 44 45 45 45 44 44 43 43 42 42 41 40 38 37 37 36 36 35 34 32 32 31 30 29 29 29 28 28 28 28 29 28 29 29 28 29 30
41 41 41 41 42 43 43 43 43 42 41 41 40 40 40 39 39 38 37 36 35 35 35 34 33 32 31 30 28 28 27 27 26 25 26 26 25 24 24 24 26 27 28
39 39 40 40 40 40 40 40 39 38 37 37 37 37 37 37 37 37 36 35 34 33 32 31 31 30 28 28 27 26 25 25 24 23 23 23 22 21 21 22 22 24 25
39 38 38 38 38 38 38 37 36 35 34 34 34 34 35 35 35 35 34 33 32 31 30 29 29 27 26 26 25 24 23 23 23 22 21 22 20 19 19 19 20 21 21
Wind_Direction
270 270 271 273 274 275 275 276 276 276 276 275 275 275 275 275 275 276 276 276 276 275 275 275 275 275 275 274 275 274 273 272 271 271 271 271 272 272 271 271 271 271 271
271 272 273 275 275 276 277 278 278 278 277 277 276 275 275 275 275 276 276 277 277 277 276 276 275 275 275 274 274 274 272 271 271 271 270 270 271 271 271 270 270 271 271
272 273 274 275 277 278 278 279 280 280 279 278 277 276 276 276 276 276 276 277 277 277 277 277 276 276 276 274 273 272 272 271 271 271 270 269 269 270 269 269 270 270 270
274 275 276 277 278 279 280 281 281 281 280 278 277 277 276 276 276 276 277 277 278 278 278 278 277 276 275 275 274 272 272 271 271 270 270 269 268 268 268 268 269 269 269
274 276 277 278 279 281 282 282 282 282 281 279 278 277 277 277 276 277 277 278 278 279 279 279 277 276 275 275 275 274 273 271 271 271 270 269 267 267 267 267 268 268 268
275 276 278 279 280 282 283 284 284 283 282 281 280 279 278 277 277 277 278 278 279 279 279 279 278 276 275 276 276 275 275 272 270 270 269 268 267 265 265 266 266 266 267
276 277 278 280 282 283 283 284 285 285 284 283 282 280 279 278 278 278 279 280 280 280 280 280 278 277 276 275 275 274 274 273 272 270 269 268 266 265 264 264 264 264 265
277 278 279 281 282 284 285 286 286 286 286 285 284 282 280 279 277 278 279 280 280 280 280 281 280 279 277 276 275 274 274 274 273 270 269 268 266 266 263 262 262 262 263
279 280 281 282 283 285 287 287 287 288 287 286 285 284 282 280 279 278 279 280 281 281 281 282 281 281 279 277 275 275 274 275 274 271 271 270 268 267 265 262 261 261 262
280 281 283 284 284 286 288 288 288 288 288 287 287 285 284 283 282 281 281 282 283 283 282 282 282 281 280 278 277 276 275 275 274 272 271 270 269 267 265 263 261 260 261
281 282 283 284 285 287 288 288 288 288 288 288 287 285 284 284 283 282 283 283 283 283 284 284 283 281 280 279 278 277 276 276 274 273 272 271 268 267 266 264 261 260 260
282 282 283 284 285 287 288 288 288 288 289 288 287 286 286 286 286 284 283 283 284 284 285 285 283 282 281 280 279 278 277 276 275 273 271 270 268 268 266 263 260 259 259
282 283 284 284 285 287 289 289 290 290 290 289 288 288 288 288 288 287 286 286 286 286 285 285 284 284 282 281 280 280 278 277 276 273 270 269 268 268 265 263 260 258 258
283 284 285 285 285 287 289 290 291 291 291 290 290 289 289 289 289 290 288 288 288 287 286 286 285 285 284 282 281 280 279 278 276 274 271 269 268 267 266 264 261 258 257
284 285 286 286 286 287 289 290 292 292 293 292 291 291 291 290 290 291 291 290 290 289 287 286 285 285 284 283 282 280 280 279 277 274 271 269 269 268 266 264 261 259 257
284 285 286 287 287 288 289 291 293 294 294 294 292 292 292 292 292 292 293 292 290 289 289 288 287 285 284 283 281 280 280 280 278 274 270 270 269 267 266 264 262 260 258
284 286 287 287 288 289 290 292 293 294 294 294 293 293 293 293 293 294 294 293 291 290 289 289 288 285 284 282 280 279 279 279 277 275 271 270 269 267 266 265 262 261 260
285 287 287 288 288 290 291 292 293 294 295 295 294 293 294 294 295 296 295 293 293 291 290 290 289 285 283 280 279 278 278 278 276 273 270 270 270 269 268 265 263 261 261
286 287 288 288 289 290 291 292 293 295 296 295 295 295 295 295 296 296 296 294 294 292 290 289 289 286 282 279 278 278 277 276 275 273 271 271 271 270 269 266 264 263 261
287 288 288 289 290 291 293 293 293 295 296 296 296 296 297 297 298 298 297 296 295 294 291 288 287 285 283 279 276 276 275 274 273 273 272 272 272 270 269 267 266 264 260
287 288 289 289 290 291 293 295 295 295 295 296 296 297 298 299 299 299 298 297 296 295 293 290 286 285 283 279 277 275 276 275 274 273 272 272 273 271 269 269 268 264 260
287 288 289 290 291 292 293 295 296 296 296 296 296 297 298 299 300 300 300 299 299 297 296 292 289 286 282 280 276 275 276 276 274 272 272 271 273 271 269 267 267 264 260
288 289 289 290 291 293 294 295 297 297 297 296 296 297 298 299 300 300 300 300 301 300 297 293 291 288 283 280 277 275 273 276 275 271 270 271 272 272 269 266 264 261 259
289 289 290 291 293 294 295 296 297 297 297 296 296 298 299 301 302 301 301 301 301 300 297 293 291 288 285 280 277 274 274 275 275 274 274 273 271 271 270 268 264 261 259
289 290 291 292 294 295 295 296 297 298 298 298 298 300 301 303 303 302 302 302 301 299 296 293 290 287 284 279 276 274 274 275 275 276 274 272 270 271 271 267 263 261 258
290 290 291 292 293 295 296 297 298 298 299 299 301 303 304 304 304 305 305 304 301 298 296 293 290 286 281 277 274 272 274 275 277 277 275 273 271 271 269 265 262 260 255
Height
5790 5790 5790 5790 5790 5790 5789 5789 5789 5788 5788 5787 5787 5786 5786 5786 5786 5785 5785 5784 5784 5783 5782 5782 5782 5781 5781 5780 5780 5779 5779 5779 5779 5779 5779 5779 5780 5780 5780 5780 5780 5780 5780
5783 5783 5783 5783 5782 5782 5782 5781 5780 5779 5779 5778 5777 5777 5777 5776 5776 5775 5775 5774 5774 5773 5772 5772 5771 5771 5770 5770 5769 5769 5769 5768 5769 5769 5769 5769 5769 5770 5770 5770 5771 5771 5771
5775 5775 5775 5775 5774 5774 5773 5772 5771 5770 5769 5768 5768 5767 5766 5766 5765 5765 5764 5763 5763 5762 5762 5761 5760 5759 5759 5758 5757 5757 5757 5757 5757 5757 5758 5758 5758 5759 5759 5760 5760 5761 5762
5767 5767 5767 5766 5765 5765 5764 5763 5762 5760 5759 5758 5757 5757 5756 5755 5755 5754 5753 5752 5752 5751 5750 5749 5748 5747 5746 5745 5745 5745 5745 5745 5745 5745 5745 5746 5746 5747 5748 5749 5749 5750 5751
5759 5758 5758 5757 5756 5755 5754 5753 5752 5750 5749 5748 5747 5746 5745 5744 5743 5742 5742 5741 5740 5739 5738 5737 5736 5734 5733 5732 5732 5731 5731 5731 5732 5732 5732 5732 5733 5734 5735 5736 5737 5738 5740
5750 5749 5749 5748 5747 5746 5744 5743 5741 5740 5738 5736 5735 5734 5733 5732 5731 5730 5729 5729 5728 5726 5725 5723 5722 5721 5720 5719 5718 5718 5717 5717 5717 5718 5718 5718 5719 5721 5722 5723 5725 5726 5727
5741 5740 5739 5738 5737 5736 5734 5732 5730 5728 5726 5724 5723 5722 5721 5720 5719 5718 5717 5716 5714 5713 5712 5710 5709 5707 5706 5705 5704 5703 5702 5702 5702 5702 5703 5703 5704 5706 5707 5709 5711 5713 5715
5731 5731 5730 5728 5727 5725 5724 5721 5719 5716 5714 5711 5709 5708 5708 5709 5708 5706 5704 5703 5701 5700 5698 5696 5694 5693 5692 5691 5690 5689 5688 5687 5687 5687 5686 5687 5688 5690 5692 5694 5696 5699 5701
5722 5721 5720 5718 5717 5715 5712 5709 5706 5704 5702 5699 5696 5694 5693 5694 5694 5694 5692 5690 5688 5686 5684 5682 5680 5678 5676 5675 5674 5673 5671 5670 5670 5670 5670 5670 5671 5673 5675 5678 5681 5683 5686
5712 5711 5709 5708 5706 5704 5701 5698 5695 5692 5689 5687 5685 5682 5680 5678 5677 5679 5680 5676 5674 5672 5669 5667 5665 5662 5660 5659 5657 5656 5655 5654 5653 5653 5653 5653 5654 5656 5658 5660 5664 5667 5670
5702 5700 5699 5697 5695 5693 5689 5686 5683 5680 5677 5675 5672 5670 5668 5665 5663 5662 5663 5663 5661 5658 5655 5651 5648 5646 5644 5642 5641 5639 5638 5638 5637 5636 5636 5636 5637 5638 5640 5643 5646 5650 5653
5692 5690 5689 5687 5684 5682 5678 5675 5672 5669 5666 5662 5659 5657 5654 5652 5650 5647 5646 5646 5645 5644 5640 5636 5633 5630 5628 5626 5624 5623 5622 5621 5620 5619 5619 5619 5619 5621 5623 5625 5629 5632 5636
5682 5680 5678 5676 5674 5671 5667 5664 5660 5657 5654 5650 5647 5645 5642 5639 5636 5633 5630 5629 5628 5628 5625 5622 5617 5615 5612 5610 5608 5606 5605 5604 5603 5603 5603 5603 5603 5604 5606 5608 5611 5615 5619
5671 5669 5667 5665 5663 5660 5657 5653 5650 5646 5643 5639 5636 5633 5630 5627 5623 5619 5616 5613 5611 5612 5610 5608 5603 5600 5597 5594 5592 5590 5589 5588 5587 5586 5586 5587 5587 5588 5590 5592 5594 5598 5602
5660 5658 5656 5654 5652 5649 5647 5643 5640 5636 5632 5628 5625 5621 5618 5614 5610 5606 5602 5598 5594 5593 5595 5593 5589 5586 5582 5579 5577 5575 5574 5573 5572 5571 5571 5571 5572 5572 5574 5576 5579 5582 5586
5649 5647 5645 5643 5641 5638 5636 5632 5629 5625 5621 5617 5613 5609 5606 5602 5598 5594 5589 5585 5579 5575 5576 5578 5574 5571 5567 5564 5562 5561 5560 5558 5557 5556 5557 5557 5558 5558 5559 5561 5564 5567 5570
5639 5637 5635 5633 5630 5628 5625 5621 5618 5614 5610 5606 5602 5598 5594 5589 5585 5581 5576 5571 5567 5562 5559 5561 5559 5556 5552 5550 5549 5547 5546 5545 5544 5544 5544 5544 5545 5546 5547 5549 5551 5553 5556
5629 5627 5624 5622 5620 5617 5613 5610 5606 5602 5598 5594 5590 5586 5582 5577 5573 5568 5563 5558 5554 5549 5545 5544 5544 5541 5538 5536 5535 5534 5533 5532 5532 5532 5532 5532 5533 5534 5535 5536 5538 5540 5543
5618 5616 5614 5611 5609 5606 5602 5599 5595 5591 5587 5583 5578 5574 5569 5564 5560 5555 5550 5545 5541 5536 5532 5529 5528 5527 5525 5523 5522 5522 5522 5521 5521 5521 5521 5522 5523 5524 5524 5526 5527 5529 5531
5608 5605 5603 5600 5597 5594 5591 5587 5584 5580 5576 5572 5567 5562 5557 5552 5547 5542 5538 5533 5529 5525 5521 5518 5516 5514 5513 5512 5511 5511 5512 5511 5511 5511 5511 5512 5513 5514 5515 5516 5517 5519 5520
5597 5594 5592 5589 5586 5583 5579 5576 5573 5569 5565 5561 5556 5551 5546 5540 5535 5530 5526 5522 5518 5514 5510 5507 5505 5504 5503 5501 5501 5501 5501 5501 5501 5501 5502 5503 5504 5505 5505 5506 5507 5508 5510
5586 5583 5580 5578 5575 5572 5568 5565 5561 5557 5553 5549 5545 5541 5536 5531 5526 5521 5516 5512 5507 5503 5499 5497 5495 5493 5493 5492 5491 5491 5491 5492 5493 5493 5493 5494 5494 5495 5496 5497 5498 5499 5501
5575 5572 5570 5567 5564 5561 5557 5554 5549 5545 5542 5539 5534 5530 5526 5521 5516 5512 5508 5504 5499 5494 5490 5488 5486 5484 5483 5483 5483 5483 5483 5483 5484 5484 5484 5486 5486 5486 5487 5488 5489 5491 5492
5564 5562 5559 5557 5554 5551 5547 5543 5539 5535 5532 5528 5524 5520 5517 5513 5508 5503 5500 5496 5491 5487 5483 5480 5478 5477 5475 5475 5474 5475 5475 5476 5476 5476 5476 5477 5478 5479 5480 5480 5481 5483 5485
5554 5552 5549 5547 5544 5541 5537 5533 5529 5526 5523 5520 5516 5512 5508 5504 5500 5495 5491 5488 5484 5479 5475 5472 5470 5469 5468 5467 5467 5467 5468 5469 5470 5471 5470 5471 5472 5472 5473 5474 5475 5476 5478
5545 5542 5540 5537 5534 5532 5528 5524 5521 5518 5515 5512 5509 5504 5500 5496 5492 5487 5483 5479 5476 5472 5469 5466 5464 5462 5461 5460 5460 5460 5461 5462 5463 5464 5465 5465 5466 5466 5468 5468 5469 5470 5472